Flag for Estonia Weather past 2 weeks in Narva, Estonia

Now
49 °F

Overcast.


Feels Like: 49 °F
Forecast: 48 / 65 °F
Wind: 1 mph from Northeast

Location: Narva

Current Time: Aug 31, 2014 at 9:33:38 AM

Latest Report: Aug 31, 2014 at 8:00 AM


Visibility: 13 mi

Pressure: 30.16 "Hg

Humidity: 93%

Dew point: 47 °F

Location of NarvaLocation

Historic Weather in Narva — Graph

°F

Narva temperature yesterday

Maximum temperature yesterday: 57 °F (at 5:00 PM)
Minimum temperature yesterday: 49 °F (at 6:00 AM)
Average temperature yesterday: 53 °F

Past Weeks' High & Low Weather Summary

 TemperatureHumidityPressure
High70 °F (Aug 18, 4:00 PM)100% (Aug 17, 8:00 AM)30.16 "Hg (Aug 17, 8:00 AM)
Low43 °F (Aug 29, 3:00 AM)48% (Aug 18, 4:00 PM)29.29 "Hg (Aug 26, 6:00 AM)
Average58 °F84%29.70 "Hg
* Reported Aug 16 8:00 AM — Aug 31 8:00 AM, Narva, Weather by CustomWeather, © 2014

Note: Actual official high and low records may vary slightly from our data, if they occured in-between our weather recording intervals... More about our weather records

Advertising

Narva weather history for previous 24 hours

 ConditionsComfort  
Time TempWeatherWind HumidityBarometerVisibility
8:00 AM
Aug 31
49 °FOvercast.1 mph93%30.16 "Hg12 mi
7:00 AM44 °FSunny.1 mph98%30.15 "Hg7 mi
6:00 AM45 °FPassing clouds.2 mph97%30.14 "Hg12 mi
5:00 AM46 °FOvercast.1 mph96%30.13 "Hg12 mi
4:00 AM45 °FPassing clouds.1 mph99%30.13 "Hg12 mi
3:00 AM44 °FClear.1 mph99%30.12 "Hg2 mi
2:00 AM46 °FPassing clouds.2 mph96%30.11 "Hg12 mi
1:00 AM51 °FOvercast.1 mph87%30.10 "Hg12 mi
12:00 AM51 °FOvercast.2 mph90%30.09 "Hg12 mi
11:00 PM
Aug 30
52 °FOvercast.2 mph88%30.08 "Hg12 mi
10:00 PM53 °FOvercast.2 mph86%30.07 "Hg12 mi
9:00 PM53 °FOvercast.2 mph87%30.06 "Hg12 mi
8:00 PM54 °FOvercast.1 mph83%30.05 "Hg12 mi
7:00 PM55 °FOvercast.2 mph78%30.04 "Hg12 mi
6:00 PM56 °FOvercast.3 mph74%30.03 "Hg12 mi
5:00 PM57 °FOvercast.2 mph71%30.03 "Hg12 mi
4:00 PM56 °FOvercast.2 mph73%30.03 "Hg12 mi
3:00 PM56 °FOvercast.3 mph71%30.02 "Hg12 mi
2:00 PM56 °FOvercast.3 mph70%30.01 "Hg12 mi
1:00 PM57 °FOvercast.5 mph64%30.01 "Hg12 mi
12:00 PM55 °FOvercast.3 mph72%30.00 "Hg12 mi
11:00 AM56 °FPartly sunny.2 mph73%29.98 "Hg12 mi
10:00 AM52 °FOvercast.2 mph91%29.97 "Hg12 mi
9:00 AM52 °FOvercast.No wind88%29.96 "Hg12 mi
Weather by CustomWeather, © 2014

See weather overviewHow to use our weather pages